GREAT CHANNEL AT STONE HARBOR HADS current weather conditions

sailwx.info

Wind from 051 at 12 knots gusting 14

Air temperature 23.7° C
Dewpoint 22.1° C

Last reported at 2020-Jul-10 08:48 UTC.
Time now 2020-Jul-10 10:02 UTC

Location: N 39°03' W 074°46'.
View on Google Maps.

See reports from other nearby stations

  
Tides and Currents Weather Stations Pressure Air Temp Water Temp Dewpoint Dewpoint Depression Visibility Wind Speed Wind Dir Waves Ship Positions
date/time (UTC)wind fromknots sea level pressurealtimeterstation pressurevisibilityair tempwater tempwave heightnotes
2020-Jul-10 08:48 051 12 gusting 14 23.7
2020-Jul-10 08:42 058 12 gusting 14 23.7
2020-Jul-10 08:36 056 11 gusting 15 23.7
2020-Jul-10 08:30 066 11 gusting 13 23.5
2020-Jul-10 08:24 068 9 gusting 13 23.5
2020-Jul-10 08:18 076 7 gusting 11 23.6
2020-Jul-10 08:12 079 7 gusting 10 23.5
2020-Jul-10 08:06 090 8 gusting 11 23.4
2020-Jul-10 08:00 092 8 gusting 12 23.6
2020-Jul-10 07:54 100 6 gusting 10 23.7
2020-Jul-10 07:48 101 6 gusting 11 23.7
2020-Jul-10 07:42 104 6 gusting 10 23.9
2020-Jul-10 07:36 107 6 gusting 9 23.9
2020-Jul-10 07:30 109 5 gusting 10 24.0
2020-Jul-10 07:24 104 7 gusting 11 23.8
2020-Jul-10 07:18 110 6 gusting 10 24.0
2020-Jul-10 07:12 138 7 gusting 13 24.1
2020-Jul-10 07:06 142 8 gusting 13 23.8
2020-Jul-10 07:00 123 7 gusting 13 24.4
2020-Jul-10 06:54 094 6 gusting 9 25.1
2020-Jul-10 06:48 096 5 gusting 8 25.1
2020-Jul-10 06:42 097 5 gusting 8 25.1
2020-Jul-10 06:36 099 5 gusting 9 25.2
2020-Jul-10 06:30 098 6 gusting 8 25.2
2020-Jul-10 06:24 093 6 gusting 8 25.2
2020-Jul-10 06:18 091 6 gusting 9 25.2
2020-Jul-10 06:12 098 6 gusting 10 25.2
2020-Jul-10 06:06 098 6 gusting 9 25.2
2020-Jul-10 06:00 097 6 gusting 9 25.2
2020-Jul-10 05:54 099 6 gusting 10 25.2
2020-Jul-10 05:48 104 6 gusting 9 25.2
2020-Jul-10 05:42 106 5 gusting 9 25.2
2020-Jul-10 05:36 104 5 gusting 9 25.2
2020-Jul-10 05:30 102 5 gusting 9 25.2
2020-Jul-10 05:24 097 5 gusting 8 25.2
2020-Jul-10 05:18 090 6 gusting 10 25.2
2020-Jul-10 05:12 094 7 gusting 11 25.2
2020-Jul-10 05:06 098 7 gusting 10 25.2
2020-Jul-10 05:00 095 6 gusting 10 25.2
2020-Jul-10 04:54 098 6 gusting 10 25.3
2020-Jul-10 04:48 095 6 gusting 10 25.3
2020-Jul-10 04:42 090 6 gusting 8 25.3
2020-Jul-10 04:36 088 6 gusting 9 25.3
2020-Jul-10 04:30 091 6 gusting 9 25.3
2020-Jul-10 04:24 087 7 gusting 11 25.4
2020-Jul-10 04:18 087 7 gusting 10 25.4
2020-Jul-10 04:12 090 7 gusting 10 25.4
2020-Jul-10 04:06 092 7 gusting 10 25.4
2020-Jul-10 04:00 096 6 gusting 10 25.4
2020-Jul-10 03:54 099 7 gusting 11 25.4
2020-Jul-10 03:48 098 8 gusting 10 25.4
2020-Jul-10 03:42 097 7 gusting 11 25.4
2020-Jul-10 03:36 097 7 gusting 11 25.4
2020-Jul-10 03:30 099 7 gusting 11 25.4
2020-Jul-10 03:24 100 6 gusting 9 25.4
2020-Jul-10 03:18 102 7 gusting 10 25.4
2020-Jul-10 03:12 099 6 gusting 9 25.4
2020-Jul-10 03:06 098 6 gusting 10 25.4
2020-Jul-10 03:00 100 6 gusting 10 25.4
2020-Jul-10 02:54 099 7 gusting 10 25.4
2020-Jul-10 02:48 107 6 gusting 9 25.4
2020-Jul-10 02:42 100 7 gusting 10 25.4
2020-Jul-10 02:36 098 7 gusting 12 25.4
2020-Jul-10 02:30 095 7 gusting 11 25.5
2020-Jul-10 02:24 090 7 gusting 11 25.6
2020-Jul-10 02:18 088 8 gusting 11 25.5
2020-Jul-10 02:12 086 8 gusting 11 25.5
2020-Jul-10 02:06 086 7 gusting 11 25.6
2020-Jul-10 02:00 084 6 gusting 9 25.6
2020-Jul-10 01:54 088 6 gusting 9 25.5
2020-Jul-10 01:48 086 7 gusting 10 25.5
2020-Jul-10 01:42 088 7 gusting 10 25.5
2020-Jul-10 01:36 087 6 gusting 10 25.5
2020-Jul-10 01:30 089 7 gusting 10 25.5
2020-Jul-10 01:24 088 6 gusting 9 25.6
2020-Jul-10 01:18 089 6 gusting 11 25.6
2020-Jul-10 01:12 090 7 gusting 10 25.6
2020-Jul-10 01:06 088 7 gusting 9 25.6
2020-Jul-10 01:00 089 7 gusting 11 25.6
2020-Jul-10 00:54 087 6 gusting 9 25.6
2020-Jul-10 00:48 088 7 gusting 11 25.6
2020-Jul-10 00:42 085 7 gusting 10 25.6
2020-Jul-10 00:36 088 6 gusting 9 25.6
2020-Jul-10 00:30 088 6 gusting 8 25.7
2020-Jul-10 00:24 086 7 gusting 10 25.7
2020-Jul-10 00:18 078 7 gusting 9 25.7
2020-Jul-10 00:12 078 7 gusting 9 25.8
2020-Jul-10 00:06 082 7 gusting 10 25.8
2020-Jul-10 00:00 085 7 gusting 10 25.9
2020-Jul-09 23:54 085 6 gusting 9 25.9
2020-Jul-09 23:42 076 7 gusting 10 26.0
2020-Jul-09 23:36 076 8 gusting 11 25.9
2020-Jul-09 23:30 073 8 gusting 11 26.0
2020-Jul-09 23:24 070 8 gusting 11 26.0
2020-Jul-09 23:18 082 7 gusting 10 26.2
2020-Jul-09 23:12 082 7 gusting 11 26.1
2020-Jul-09 23:06 083 7 gusting 11 26.1
2020-Jul-09 23:00 086 8 gusting 11 26.1
2020-Jul-09 22:54 092 8 gusting 11 26.1
2020-Jul-09 22:48 084 7 gusting 10 26.1
2020-Jul-09 22:42 084 8 gusting 10 26.1
2020-Jul-09 22:36 087 8 gusting 10 26.2
2020-Jul-09 22:30 079 8 gusting 10 26.0
2020-Jul-09 22:24 085 7 gusting 10 26.2
2020-Jul-09 22:18 087 7 gusting 10 26.3
2020-Jul-09 22:12 080 6 gusting 9 26.4
2020-Jul-09 22:06 079 7 gusting 12 26.3
2020-Jul-09 22:00 084 6 gusting 9 26.4
2020-Jul-09 21:54 099 7 gusting 10 26.4
2020-Jul-09 21:48 083 7 gusting 10 26.2
2020-Jul-09 21:42 080 7 gusting 12 26.3
2020-Jul-09 21:36 080 7 gusting 10 26.4
2020-Jul-09 21:30 086 7 gusting 11 26.5
2020-Jul-09 21:24 086 7 gusting 9 26.5
2020-Jul-09 21:18 086 7 gusting 10 26.4
2020-Jul-09 21:12 081 7 gusting 10 26.4
2020-Jul-09 21:06 085 7 gusting 10 26.4
2020-Jul-09 21:00 087 7 gusting 9 26.4
2020-Jul-09 20:54 082 7 gusting 11 26.4
2020-Jul-09 20:48 080 8 gusting 11 26.4
2020-Jul-09 20:42 085 6 gusting 9 26.6
2020-Jul-09 20:36 101 8 gusting 11 26.5
2020-Jul-09 20:30 098 9 gusting 11 26.4
2020-Jul-09 20:24 095 7 gusting 12 26.6
2020-Jul-09 20:18 097 8 gusting 12 26.4
2020-Jul-09 20:12 085 8 gusting 11 26.6
2020-Jul-09 20:06 088 7 gusting 11 26.5
2020-Jul-09 20:00 082 7 gusting 10 26.4
2020-Jul-09 19:54 078 8 gusting 11 26.4
2020-Jul-09 19:48 087 8 gusting 12 26.4
2020-Jul-09 19:42 082 8 gusting 11 26.4
2020-Jul-09 19:36 091 8 gusting 11 26.3
2020-Jul-09 19:30 088 7 gusting 11 26.4
2020-Jul-09 19:24 081 8 gusting 11 26.3
2020-Jul-09 19:18 091 7 gusting 10 26.6
2020-Jul-09 19:12 088 7 gusting 11 26.4
2020-Jul-09 19:06 082 8 gusting 11 26.4
2020-Jul-09 19:00 086 7 gusting 10 26.5
2020-Jul-09 18:54 090 6 gusting 11 26.5
2020-Jul-09 18:48 102 7 gusting 11 26.5
2020-Jul-09 18:42 100 7 gusting 11 26.4
2020-Jul-09 18:36 097 7 gusting 11 26.5
2020-Jul-09 18:30 100 6 gusting 9 26.5
2020-Jul-09 18:24 095 6 gusting 10 26.5
2020-Jul-09 18:18 102 7 gusting 11 26.5
2020-Jul-09 18:12 097 6 gusting 9 26.4
2020-Jul-09 18:06 100 6 gusting 9 26.4
2020-Jul-09 18:00 096 6 gusting 10 26.6
2020-Jul-09 17:54 115 6 gusting 10 26.6
2020-Jul-09 17:48 108 6 gusting 10 26.6
2020-Jul-09 17:42 108 6 gusting 10 26.7
2020-Jul-09 17:36 106 6 gusting 10 26.6
2020-Jul-09 17:30 112 5 gusting 9 26.7
2020-Jul-09 17:24 099 6 gusting 9 26.6
2020-Jul-09 17:18 095 6 gusting 9 26.4
2020-Jul-09 17:12 099 6 gusting 10 26.3
2020-Jul-09 17:06 095 7 gusting 10 26.1
2020-Jul-09 17:00 104 8 gusting 11 26.1
2020-Jul-09 16:54 095 7 gusting 11 26.2
2020-Jul-09 16:48 099 7 gusting 10 26.3
2020-Jul-09 16:42 105 7 gusting 11 26.2
2020-Jul-09 16:36 104 8 gusting 11 26.3
2020-Jul-09 16:30 106 7 gusting 10 26.3
2020-Jul-09 16:24 101 7 gusting 11 26.1
2020-Jul-09 16:18 089 7 gusting 10 26.1
2020-Jul-09 16:12 080 8 gusting 11 25.9
2020-Jul-09 16:06 085 8 gusting 11 26.0
2020-Jul-09 16:00 079 7 gusting 10 26.0
2020-Jul-09 15:54 081 7 gusting 10 26.1
2020-Jul-09 15:48 084 7 gusting 10 26.1
2020-Jul-09 15:42 087 7 gusting 11 26.0
2020-Jul-09 15:36 090 7 gusting 10 25.9
2020-Jul-09 15:30 081 9 gusting 11 25.8
2020-Jul-09 15:24 087 8 gusting 11 25.9
2020-Jul-09 15:18 083 8 gusting 12 25.8
2020-Jul-09 15:12 082 8 gusting 12 25.8
2020-Jul-09 15:06 083 8 gusting 10 25.9
2020-Jul-09 15:00 083 7 gusting 11 25.8
2020-Jul-09 14:54 082 7 gusting 10 25.8
2020-Jul-09 14:48 082 7 gusting 10 25.9
2020-Jul-09 14:42 078 7 gusting 11 25.8
2020-Jul-09 14:36 095 6 gusting 11 26.1
2020-Jul-09 14:30 091 6 gusting 8 26.1
2020-Jul-09 14:24 102 6 gusting 10 26.0
2020-Jul-09 14:18 090 7 gusting 10 25.9
2020-Jul-09 14:12 084 7 gusting 10 25.7
2020-Jul-09 14:06 081 7 gusting 10 25.7
2020-Jul-09 14:00 075 8 gusting 11 25.6
2020-Jul-09 13:54 071 8 gusting 10 25.5
2020-Jul-09 13:48 077 7 gusting 10 25.6
2020-Jul-09 13:42 081 7 gusting 9 25.5
2020-Jul-09 13:36 073 8 gusting 10 25.5
2020-Jul-09 13:30 077 7 gusting 11 25.5
2020-Jul-09 13:24 075 7 gusting 10 25.5
2020-Jul-09 13:18 077 7 gusting 10 25.5
2020-Jul-09 13:12 080 5 gusting 8 25.6
2020-Jul-09 13:06 083 6 gusting 10 25.5
2020-Jul-09 13:00 079 7 gusting 9 25.4
2020-Jul-09 12:54 075 8 gusting 10 25.3
2020-Jul-09 12:48 076 8 gusting 10 25.3
2020-Jul-09 12:42 086 7 gusting 10 25.4
2020-Jul-09 12:36 076 7 gusting 9 25.3
2020-Jul-09 12:30 086 6 gusting 8 25.4
2020-Jul-09 12:24 087 5 gusting 8 25.3
2020-Jul-09 12:18 076 6 gusting 8 25.3
2020-Jul-09 12:12 082 6 gusting 8 25.3
2020-Jul-09 12:06 082 6 gusting 8 25.4
2020-Jul-09 12:00 094 5 gusting 7 25.4
2020-Jul-09 11:54 106 4 gusting 7 25.4
2020-Jul-09 11:48 096 5 gusting 7 25.3
2020-Jul-09 11:42 091 6 gusting 8 25.2
2020-Jul-09 11:36 088 5 gusting 7 25.2
2020-Jul-09 11:30 089 4 gusting 7 25.2
2020-Jul-09 11:24 097 4 gusting 6 25.2
2020-Jul-09 11:18 099 3 gusting 5 25.1
2020-Jul-09 11:12 102 4 gusting 6 25.0
2020-Jul-09 11:06 102 3 gusting 5 24.9
2020-Jul-09 11:00 102 3 gusting 5 24.9
2020-Jul-09 10:54 114 2 gusting 4 24.8
2020-Jul-09 10:48 126 2 gusting 4 24.7
2020-Jul-09 10:42 121 2 gusting 5 24.6
2020-Jul-09 10:36 112 2 gusting 4 24.6
2020-Jul-09 10:30 092 2 gusting 4 24.5
2020-Jul-09 10:24 100 3 gusting 4 24.4
2020-Jul-09 10:18 099 2 gusting 4 24.3
2020-Jul-09 10:12 105 2 gusting 4 24.2
2020-Jul-09 10:06 100 2 gusting 3 24.1
2020-Jul-09 10:00 098 2 gusting 4 24.1
2020-Jul-09 09:54 096 2 gusting 4 24.1
2020-Jul-09 09:48 110 2 gusting 3 24.1
2020-Jul-09 09:42 097 2 gusting 3 24.1
2020-Jul-09 09:36 110 2 gusting 3 24.1
2020-Jul-09 09:30 125 2 gusting 3 24.2
2020-Jul-09 09:24 113 1 gusting 3 24.2
2020-Jul-09 09:18 133 1 gusting 3 24.2
2020-Jul-09 09:12 148 2 gusting 3 24.2
2020-Jul-09 09:06 126 2 gusting 3 24.2
2020-Jul-09 09:00 112 2 gusting 3 24.2
2020-Jul-09 08:54 108 2 gusting 3 24.2
2020-Jul-09 08:48 129 1 gusting 3 24.3
2020-Jul-09 08:42 147 2 gusting 4 24.3
2020-Jul-09 08:36 131 2 gusting 4 24.3
2020-Jul-09 08:30 140 2 gusting 5 24.3
2020-Jul-09 08:24 139 3 gusting 4 24.3
2020-Jul-09 08:18 136 2 gusting 4 24.3
2020-Jul-09 08:12 148 2 gusting 3 24.3
2020-Jul-09 08:06 164 3 gusting 4 24.2
2020-Jul-09 08:00 162 2 gusting 3 24.2
2020-Jul-09 07:54 162 3 gusting 4 24.2
2020-Jul-09 07:48 147 2 gusting 3 24.2
2020-Jul-09 07:42 130 1 gusting 3 24.2
2020-Jul-09 07:36 118 1 gusting 2 24.2
2020-Jul-09 07:30 126 1 gusting 3 24.2
2020-Jul-09 07:24 147 2 gusting 4 24.2
2020-Jul-09 07:18 160 3 gusting 4 24.2
2020-Jul-09 07:12 168 3 gusting 5 24.2
2020-Jul-09 07:06 174 4 gusting 6 24.3
2020-Jul-09 07:00 175 5 gusting 7 24.3
2020-Jul-09 06:54 171 4 gusting 6 24.3
2020-Jul-09 06:48 171 4 gusting 5 24.3
2020-Jul-09 06:42 156 3 gusting 6 24.3
2020-Jul-09 06:36 162 3 gusting 5 24.3
2020-Jul-09 06:30 163 4 gusting 7 24.3
2020-Jul-09 06:24 158 4 gusting 5 24.4
2020-Jul-09 06:18 148 3 gusting 6 24.4
2020-Jul-09 06:12 133 3 gusting 5 24.4
2020-Jul-09 06:06 115 3 gusting 4 24.4
2020-Jul-09 06:00 121 2 gusting 4 24.4
2020-Jul-09 05:54 114 2 gusting 4 24.4
2020-Jul-09 05:48 096 3 gusting 4 24.4
2020-Jul-09 05:42 100 2 gusting 4 24.4
2020-Jul-09 05:36 123 2 gusting 4 24.4
2020-Jul-09 05:30 129 3 gusting 4 24.4
2020-Jul-09 05:24 127 2 gusting 4 24.4
2020-Jul-09 05:18 131 3 gusting 5 24.5
2020-Jul-09 05:12 107 2 gusting 3 24.4
2020-Jul-09 05:06 117 2 gusting 3 24.5
2020-Jul-09 05:00 118 2 gusting 3 24.5
2020-Jul-09 04:54 132 2 gusting 4 24.5
2020-Jul-09 04:48 130 1 gusting 4 24.5
2020-Jul-09 04:42 138 2 gusting 3 24.5
2020-Jul-09 04:36 152 3 gusting 5 24.5
2020-Jul-09 04:30 168 3 gusting 5 24.5
2020-Jul-09 04:24 171 4 gusting 5 24.5
2020-Jul-09 04:18 167 4 gusting 6 24.6
2020-Jul-09 04:12 175 4 gusting 6 24.6
2020-Jul-09 04:06 180 5 gusting 7 24.6
2020-Jul-09 04:00 186 4 gusting 6 24.6
2020-Jul-09 03:54 190 4 gusting 6 24.5
2020-Jul-09 03:48 189 5 gusting 7 24.6
2020-Jul-09 03:42 184 5 gusting 7 24.6
2020-Jul-09 03:36 186 5 gusting 8 24.6
2020-Jul-09 03:30 191 5 gusting 9 24.6
2020-Jul-09 03:24 186 5 gusting 9 24.6
2020-Jul-09 03:18 187 7 gusting 10 24.6
2020-Jul-09 03:12 187 7 gusting 10 24.6
2020-Jul-09 03:06 183 6 gusting 9 24.6
2020-Jul-09 03:00 180 6 gusting 9 24.6
2020-Jul-09 02:54 181 5 gusting 9 24.6
2020-Jul-09 02:48 179 5 gusting 7 24.6
2020-Jul-09 02:42 178 5 gusting 7 24.6
2020-Jul-09 02:36 175 5 gusting 8 24.7
2020-Jul-09 02:30 181 6 gusting 10 24.7
2020-Jul-09 02:24 178 6 gusting 11 24.7
2020-Jul-09 02:18 174 6 gusting 8 24.7
2020-Jul-09 02:12 170 6 gusting 8 24.7
2020-Jul-09 02:06 173 6 gusting 9 24.7
2020-Jul-09 02:00 172 5 gusting 8 24.8
2020-Jul-09 01:54 166 5 gusting 8 24.8
2020-Jul-09 01:48 164 5 gusting 8 24.8
2020-Jul-09 01:42 172 5 gusting 8 24.8
2020-Jul-09 01:36 166 5 gusting 8 24.8
2020-Jul-09 01:30 165 5 gusting 7 24.8
2020-Jul-09 01:24 164 5 gusting 7 24.9
2020-Jul-09 01:18 165 5 gusting 7 24.9
2020-Jul-09 01:12 162 5 gusting 7 24.9
2020-Jul-09 01:06 163 5 gusting 8 24.9
2020-Jul-09 01:00 159 5 gusting 8 25.0
2020-Jul-09 00:54 160 5 gusting 8 25.0
2020-Jul-09 00:48 156 4 gusting 7 25.0
2020-Jul-09 00:42 154 5 gusting 8 25.0
2020-Jul-09 00:36 158 5 gusting 8 25.0
2020-Jul-09 00:30 164 5 gusting 8 25.1
2020-Jul-09 00:24 169 5 gusting 8 25.1
2020-Jul-09 00:18 162 6 gusting 8 25.1
2020-Jul-09 00:12 159 5 gusting 8 25.1
2020-Jul-09 00:06 161 5 gusting 7 25.2
2020-Jul-09 00:00 165 5 gusting 9 25.2
2020-Jul-08 23:54 168 5 gusting 10 25.3
2020-Jul-08 23:42 158 6 gusting 9 25.4
2020-Jul-08 23:36 156 6 gusting 9 25.4
2020-Jul-08 23:30 157 7 gusting 9 25.5
2020-Jul-08 23:24 158 7 gusting 10 25.6
2020-Jul-08 23:18 158 6 gusting 10 25.8
2020-Jul-08 23:12 154 5 gusting 8 25.8
2020-Jul-08 23:06 160 6 gusting 9 25.8
2020-Jul-08 23:00 161 6 gusting 9 25.8
2020-Jul-08 22:54 157 6 gusting 9 25.7
2020-Jul-08 22:48 155 6 gusting 9 25.8
2020-Jul-08 22:42 160 7 gusting 10 25.7
2020-Jul-08 22:36 164 7 gusting 10 25.7
2020-Jul-08 22:30 162 7 gusting 10 25.7
2020-Jul-08 22:24 164 7 gusting 10 25.9
2020-Jul-08 22:18 161 7 gusting 9 26.0
2020-Jul-08 22:12 154 5 gusting 9 26.2
2020-Jul-08 22:06 158 5 gusting 9 26.2
2020-Jul-08 22:00 160 6 gusting 9 26.2
2020-Jul-08 21:54 160 6 gusting 9 26.1
2020-Jul-08 21:48 158 6 gusting 9 26.1
2020-Jul-08 21:42 162 6 gusting 9 26.2
2020-Jul-08 21:36 162 6 gusting 9 26.2
2020-Jul-08 21:30 160 5 gusting 9 26.2
2020-Jul-08 21:24 159 6 gusting 8 26.2
2020-Jul-08 21:18 156 6 gusting 7 26.2
2020-Jul-08 21:12 164 6 gusting 10 26.2
2020-Jul-08 21:06 165 6 gusting 9 26.3
2020-Jul-08 21:00 169 6 gusting 9 26.3
2020-Jul-08 20:54 176 6 gusting 9 26.3
2020-Jul-08 20:48 170 6 gusting 10 26.4
2020-Jul-08 20:42 176 7 gusting 11 26.3
2020-Jul-08 20:36 173 7 gusting 10 26.2
2020-Jul-08 20:30 176 6 gusting 9 26.4
2020-Jul-08 20:24 180 7 gusting 11 26.3
2020-Jul-08 20:18 177 7 gusting 12 26.3
2020-Jul-08 20:12 184 8 gusting 13 26.3
2020-Jul-08 20:06 191 8 gusting 11 26.4
2020-Jul-08 20:00 188 7 gusting 12 26.4
2020-Jul-08 19:54 179 7 gusting 10 26.4
2020-Jul-08 19:48 188 8 gusting 14 26.4
2020-Jul-08 19:42 180 6 gusting 10 26.5
2020-Jul-08 19:36 179 6 gusting 9 26.4
2020-Jul-08 19:30 173 7 gusting 11 26.3
2020-Jul-08 19:24 178 7 gusting 11 26.3
2020-Jul-08 19:18 173 6 gusting 10 26.3
2020-Jul-08 19:12 172 7 gusting 11 26.3
2020-Jul-08 19:06 176 7 gusting 11 26.4
2020-Jul-08 19:00 170 7 gusting 11 26.3
2020-Jul-08 18:54 175 7 gusting 10 26.3
2020-Jul-08 18:48 175 7 gusting 11 26.3
2020-Jul-08 18:42 173 7 gusting 11 26.4
2020-Jul-08 18:36 172 7 gusting 10 26.3
2020-Jul-08 18:30 174 7 gusting 12 26.3
2020-Jul-08 18:24 172 8 gusting 11 26.3
2020-Jul-08 18:18 171 7 gusting 12 26.3
2020-Jul-08 18:12 177 7 gusting 11 26.2
2020-Jul-08 18:06 174 7 gusting 11 26.3
2020-Jul-08 18:00 177 8 gusting 12 26.2
2020-Jul-08 17:54 187 8 gusting 13 26.1
2020-Jul-08 17:48 184 8 gusting 11 26.2
2020-Jul-08 17:42 193 8 gusting 12 26.1
2020-Jul-08 17:36 182 9 gusting 12 26.1
2020-Jul-08 17:30 185 9 gusting 12 26.0
2020-Jul-08 17:24 190 10 gusting 13 26.0
2020-Jul-08 17:18 191 9 gusting 13 26.0
2020-Jul-08 17:12 186 9 gusting 14 25.9
2020-Jul-08 17:06 191 9 gusting 12 25.9
2020-Jul-08 17:00 188 9 gusting 13 26.0
2020-Jul-08 16:54 194 8 gusting 12 26.1
2020-Jul-08 16:48 178 7 gusting 12 26.1
2020-Jul-08 16:42 174 7 gusting 11 26.1
2020-Jul-08 16:36 178 7 gusting 11 26.1
2020-Jul-08 16:30 177 6 gusting 10 26.0
2020-Jul-08 16:24 174 7 gusting 11 25.9
2020-Jul-08 16:18 174 7 gusting 11 25.9
2020-Jul-08 16:12 177 6 gusting 9 26.0
2020-Jul-08 16:06 178 7 gusting 10 25.9
2020-Jul-08 16:00 179 7 gusting 10 25.8
2020-Jul-08 15:54 178 8 gusting 12 25.8
2020-Jul-08 15:48 180 7 gusting 11 25.7
2020-Jul-08 15:42 177 7 gusting 10 25.7
2020-Jul-08 15:36 175 7 gusting 11 25.6
2020-Jul-08 15:30 176 8 gusting 12 25.6
2020-Jul-08 15:24 176 8 gusting 11 25.5
2020-Jul-08 15:18 178 8 gusting 12 25.5
2020-Jul-08 15:12 179 7 gusting 11 25.6
2020-Jul-08 15:06 179 7 gusting 11 25.6
2020-Jul-08 15:00 175 7 gusting 10 25.5
2020-Jul-08 14:54 175 6 gusting 11 25.4
2020-Jul-08 14:48 174 6 gusting 10 25.4
2020-Jul-08 14:42 178 6 gusting 10 25.3
2020-Jul-08 14:36 171 6 gusting 9 25.3
2020-Jul-08 14:30 176 7 gusting 11 25.2
2020-Jul-08 14:24 177 7 gusting 11 25.2
2020-Jul-08 14:18 180 7 gusting 11 25.2
2020-Jul-08 14:12 176 7 gusting 11 25.2
2020-Jul-08 14:06 174 7 gusting 10 25.1
2020-Jul-08 14:00 175 7 gusting 11 25.1
2020-Jul-08 13:54 171 7 gusting 10 25.1
2020-Jul-08 13:48 174 8 gusting 11 25.0
2020-Jul-08 13:42 167 7 gusting 10 25.1
2020-Jul-08 13:36 164 7 gusting 10 25.1
2020-Jul-08 13:30 168 7 gusting 11 25.0
2020-Jul-08 13:24 163 7 gusting 10 25.0
2020-Jul-08 13:18 167 6 gusting 9 25.1
2020-Jul-08 13:12 170 6 gusting 8 25.1
2020-Jul-08 13:06 167 6 gusting 9 25.0
2020-Jul-08 13:00 163 5 gusting 8 25.1
2020-Jul-08 12:54 164 5 gusting 8 25.0
2020-Jul-08 12:48 164 5 gusting 9 25.0
2020-Jul-08 12:42 160 5 gusting 7 25.0
2020-Jul-08 12:36 167 4 gusting 7 24.9
2020-Jul-08 12:30 168 5 gusting 9 24.8
2020-Jul-08 12:24 167 5 gusting 8 24.8
2020-Jul-08 12:18 161 5 gusting 7 24.7
2020-Jul-08 12:12 166 5 gusting 8 24.6
2020-Jul-08 12:06 161 5 gusting 8 24.5
2020-Jul-08 12:00 159 5 gusting 8 24.5
2020-Jul-08 11:54 164 5 gusting 7 24.4
2020-Jul-08 11:48 164 4 gusting 6 24.3
2020-Jul-08 11:42 168 4 gusting 7 24.2
2020-Jul-08 11:36 170 5 gusting 7 24.1
2020-Jul-08 11:30 164 5 gusting 7 24.1
2020-Jul-08 11:24 169 5 gusting 7 24.0
2020-Jul-08 11:18 174 5 gusting 7 23.9
2020-Jul-08 11:12 170 5 gusting 7 23.9
2020-Jul-08 11:06 166 5 gusting 7 23.8
2020-Jul-08 11:00 171 5 gusting 7 23.8
2020-Jul-08 10:54 165 4 gusting 5 23.7
2020-Jul-08 10:48 166 4 gusting 6 23.7
2020-Jul-08 10:42 161 3 gusting 5 23.6
2020-Jul-08 10:36 170 4 gusting 7 23.5
2020-Jul-08 10:30 165 4 gusting 6 23.4
2020-Jul-08 10:24 163 4 gusting 6 23.4
2020-Jul-08 10:18 166 4 gusting 5 23.4
2020-Jul-08 10:12 166 3 gusting 5 23.3
2020-Jul-08 10:06 168 4 gusting 5 23.3
2020-Jul-08 10:00 170 4 gusting 5 23.3